Regional Weather Roundup
Issued by NWS Boston, MA

Current Version | Previous Version | Text Only | Print | Product List | Glossary On
Versions: 1 2 3 4 5 6 7 8 9 10 11 12 13 14 15 16 17 18 19 20 21 22 23 24 25 26 27
000
ASUS41 KBOX 221510
RWRBOX

REGIONAL WEATHER ROUNDUP
NATIONAL WEATHER SERVICE BOSTON/NORTON MA
1000 AM EST THU FEB 22 2024

NOTE:  "FAIR" INDICATES FEW OR NO CLOUDS BELOW 12,000 FEET WITH NO
SIGNIFICANT WEATHER AND/OR OBSTRUCTIONS TO VISIBILITY.

MAZALL-221600-
EASTERN MASSACHUSETTS

CITY           SKY/WX    TMP DP  RH WIND       PRES   REMARKS
BOSTON         MOSUNNY   34  25  69 SE9       30.08F WCI  27
BEVERLY        MOSUNNY   32  24  72 S7        30.07F WCI  26
LAWRENCE       SUNNY     33  23  66 VRB6      30.07F WCI  28
BEDFORD        SUNNY     35  23  61 S12G18    30.05F WCI  27
NORWOOD        SUNNY     35  24  64 SW7       30.08F WCI  29
MARSHFIELD     PTSUNNY   34  25  69 VRB6      30.08F WCI  29
PLYMOUTH       MOSUNNY   33  24  69 SW6       30.07F WCI  28
TAUNTON        MOSUNNY   34  24  67 SE6       30.08F WCI  29
NEW BEDFORD    MOSUNNY   33  24  69 CALM      30.08F
$$

MAZALL-221600-
CAPE COD AND THE ISLANDS

CITY           SKY/WX    TMP DP  RH WIND       PRES   REMARKS
FALMOUTH       MOSUNNY   32  23  69 CALM      30.11S
HYANNIS        MOSUNNY   32  24  72 SW5       30.07F WCI  27
CHATHAM        CLOUDY    37  25  61 NE3       30.08F
PROVINCETOWN   CLOUDY    36  25  64 S3        30.09F
NANTUCKET      SUNNY     37  27  67 W7        30.08F WCI  32
MARTHAS VNYRD  MOSUNNY   34  25  69 CALM      30.07F
$$

MAZALL-221600-
CENTRAL AND WESTERN MASSACHUSETTS

CITY           SKY/WX    TMP DP  RH WIND       PRES   REMARKS
WORCESTER      CLOUDY    30  23  75 SW12      30.01F WCI  20
FITCHBURG      PTSUNNY   34  23  64 S9        30.05F WCI  27
ORANGE         CLOUDY    31  24  75 SW12      30.02F WCI  22
SPRINGFIELD    CLOUDY    34  25  69 SW12      30.01F WCI  25
WESTFIELD      CLOUDY    33  25  72 S8        30.02F WCI  26
NORTH ADAMS    MOSUNNY   36  25  64 CALM      29.98F
PITTSFIELD     PTSUNNY   32  25  75 SE7       29.94F WCI  26
$$

RIZALL-221600-
RHODE ISLAND

CITY           SKY/WX    TMP DP  RH WIND       PRES   REMARKS
PROVIDENCE     MOSUNNY   32  25  75 S6        30.09F WCI  26
NEWPORT        PTSUNNY   32  24  72 SE6       30.08F WCI  26
BLOCK ISLAND   PTSUNNY   34  24  67 SE6       30.09F WCI  29
SMITHFIELD     SUNNY     34  24  67 VRB3      30.06F
WESTERLY       PTSUNNY   33  27  78 SE6       30.09F WCI  28
$$

CTZALL-221600-
CONNECTICUT

CITY           SKY/WX    TMP DP  RH WIND       PRES   REMARKS
BRADLEY INTL   CLOUDY    34  26  72 S9        30.04F WCI  27
HARTFORD       CLOUDY    34  27  75 S6        30.06F WCI  29
PLAINVILLE     CLOUDY    34  28  77 VRB6      30.04F WCI  29
BRIDGEPORT     CLOUDY    37  28  70 SW12      30.07F WCI  29
DANBURY        CLOUDY    35  26  69 VRB5      30.04F WCI  31
GROTON         CLOUDY    35  27  72 MISG      30.09F
NEW HAVEN      CLOUDY    38  29  70 S10       30.07F WCI  31
CHESTER        CLOUDY    34  27  75 SE7       30.06F WCI  28
MERIDEN        CLOUDY    34  25  69 S7        30.06F WCI  28
WILLIMANTIC    CLOUDY    31  25  78 VRB3      30.07F
OXFORD         CLOUDY    33  26  75 SW9       30.03F WCI  25
$$

MEZ002-015-021-024-NHZ003-005-008-011-012-014-VTZ005-008-221600-
NORTHERN NEW ENGLAND

CITY           SKY/WX    TMP DP  RH WIND       PRES   REMARKS
PORTLAND ME    CLOUDY    33  24  69 S8        30.06F WCI  26
BANGOR ME      CLOUDY    30  21  69 SW7       30.06F WCI  23
CONCORD NH     MOSUNNY   32  24  72 SE6       30.03F WCI  26
MANCHESTER NH  PTSUNNY   34  23  64 S10G16    30.02F WCI  26
NASHUA NH      SUNNY     33  25  72 SW9       30.05F WCI  25
PORTSMOUTH NH  PTSUNNY   34  22  62 S8        30.05F WCI  27
JAFFREY NH     CLOUDY    30  23  75 S8        29.98F WCI  22
KEENE NH       CLOUDY    30  25  81 SW12      30.01F WCI  20
BURLINGTON VT  PTSUNNY   35  24  64 S21G31    29.87F WCI  24
MT. WASHINGTON MOSUNNY   25  16  68 W28         N/A  WCI   8
$$

NYZ052-076-221600-
EASTERN NEW YORK

CITY           SKY/WX    TMP DP  RH WIND       PRES   REMARKS
ALBANY         PTSUNNY   36  25  64 SE16G23   29.99  WCI  26
NEW YORK CITY  PTSUNNY   39  27  62 S7        30.06F
$$

ANZALL-221600-
MARINE OBSERVATIONS

STATION/POSITION TIME  TEMP    WIND        PRES    VSBY  WAVE
                       AIR SEA DIR/SP/G                  HT/PER
                 (UTC) (F)     (DEG/KT/KT) (MB)    (MI)  (FT/S)
BOSTON BUOY      1450   32 40  210/  4/  8 1018.3F         3/ 6
BUZZARDS BAY     1400   38     150/ 15/ 16 1019.4F
NANTUCKET SOUND  1450   35 37  310/  2/  4 1018.4F         1/ 6
MASS BAY-STELLWA 1304   33 39  210/  4/  8 1020.2F  1 7/8  2/ 6
ISLE OF SHOALS   1400   38     150/ 15/ 16 1019.4F
S OF BLOCK IS    1456      41                N/A           6/11
$$

......................KEY.........................
  SKY/WX - SKY CONDITION/PRESENT WEATHER
  TMP    - TEMPERATURE IN FAHRENHEIT
  DWPT   - DEWPOINT IN FAHRENHEIT
  RH     - RELATIVE HUMIDITY IN PERCENT
  WIND   - DIRECTION AND SPEED IN MPH
  PRES   - MEAN SEA LEVEL PRESSURE IN INCHES OF HG
  WCI    - WIND CHILL INDEX
  VSB    - VISIBILITY IN MILES
  HX     - HEAT INDEX
  TC     - TEMPERATURE IN CELSIUS
  VRB    - VARIABLE WIND DIRECTION
  N/A    - NOT AVAILABLE



USA.gov is the U.S. government's official web portal to all federal, state and local government web resources and services.